Live-Position
3D-Globus wird geladen...
Über Starlink 4341
Group: 3 satellites
Beschreibung wird geladen...
Nächste Überflüge
Passes for default location (London). Set your location on the main map for personalized predictions.
Höhenverlauf
Loading altitude history...
No altitude history available
Zweizeiliger Elementsatz
1 53052U 22077K 26124.45018788 .00001411 00000-0 10195-3 0 9995
2 53052 97.5421 304.9651 0000931 97.0341 263.0992 15.05647155209292
Epoch: 4. Mai 2026 •
Age: 15 hours
Aktueller Status
Höhe 552.7 km
Geschwindigkeit 7.59 km/s
Subsatellitenpunkt -1.10°S,
126.94°W
Startdatum 11. Juli 2022
Alter 3.8 years
Typ internet
Startgruppe
Falcon 9 •
Group 3-1 •
42 satellites
Starlink 4362
53043
Starlink 4350 53045
Starlink 4331 53046
Starlink 4352 53047
Starlink 4355 53048
Starlink 4345 53049
Starlink 4343 53050
Starlink 4336 53051
Starlink 4337 53053
Starlink 4339 53054
Starlink 4338 53055
Starlink 4314 53056
Starlink 4252 53057
Starlink 4317 53058
Starlink 4320 53059
Starlink 4305 53060
Starlink 4308 53061
Starlink 4311 53062
Starlink 4307 53063
Starlink 4313 53064
...and 21 more
Technische Details
Klassifizierung Payload
Masse 297.00 kg
Trockenmasse 275.00 kg
Gesamtmasse 297.00 kg
Länge 0.20 m
Durchmesser 2.80 m
Spannweite 9.00 m
Form Box + pan
Hersteller SPXS
Bus-Typ Starlink
Phasenstatus In Orbit
Besitzer/Staat SPXS/US
Most Searched
Loading...